Weather History for Miles City, MT

Change the Weather History Date:

Tuesday, July 30, 2013

  Actual Average Record
Temperature  
Mean Temperature 70 °F 76 °F  
Max Temperature 80 °F 90 °F 106 °F (2000)
Min Temperature 59 °F 61 °F 46 °F (2009)
Degree Days  
Heating Degree Days 0 0  
Month to date heating degree days 0 10  
Since 1 June heating degree days 59 99  
Since 1 July heating degree days 0 10  
Cooling Degree Days 5 11  
Month to date cooling degree days 312 280  
Year to date cooling degree days 418 407  
Since 1 June cooling degree days 405 387  
Growing Degree Days 20 (Base 50)    
Moisture  
Dew Point 55 °F    
Average Humidity 63    
Maximum Humidity 84    
Minimum Humidity 42    
Precipitation  
Precipitation 0.07 in 0.04 in 1.03 in (1987)
Month to date precipitation 0.98 1.59  
Year to date precipitation 12.01 8.80  
Sea Level Pressure  
Sea Level Pressure 30.08 in    
Wind  
Wind Speed 8 mph (NNE)    
Max Wind Speed 20 mph    
Max Gust Speed 25 mph    
Visibility 10 miles    
Events Rain , Thunderstorm    
T = Trace of Precipitation, MM = Missing Value Source: NWS Daily Summary

Daily Weather History Graph

Daily Weather History Graph

Search for Another Location

Airport:

Trip Planner

Search our weather history database for the weather conditions in past years. The results will help you decide how hot, cold, wet, or windy it might be!

Date:

Astronomy

Jul. 30, 2013 Rise Set
Actual Time 5:42 AM MDT 8:36 PM MDT
Civil Twilight 5:07 AM MDT 9:11 PM MDT
Nautical Twilight 4:22 AM MDT 9:56 PM MDT
Astronomical Twilight 3:28 AM MDT 10:49 PM MDT
Moon 12:05 AM MDT (7/30) 2:58 PM MDT (7/30)
Length of Visible Light 16h 04m
Length of Day
14h 53m
Last Quarter, 40% of the Moon is Illuminated
Jul 30
Last Quarter
Aug 6
New
Aug 14
First Quarter
Aug 20
Full
Aug 28
Last Quarter

Hourly Weather History & Observations

Time (MDT) Temp. Dew Point Humidity Pressure Visibility Wind Dir Wind Speed Gust Speed Precip Events Conditions
12:53 AM 62.1 °F 53.1 °F 72% 30.03 in 10.0 mi NE 4.6 mph - N/A   Clear
1:53 AM 61.0 °F 54.0 °F 78% 30.01 in 10.0 mi NE 4.6 mph - N/A   Clear
2:53 AM 61.0 °F 54.0 °F 78% 30.01 in 10.0 mi NNE 4.6 mph - N/A   Clear
3:53 AM 62.1 °F 55.0 °F 78% 30.05 in 10.0 mi NW 8.1 mph - N/A   Overcast
4:10 AM 60.8 °F 55.4 °F 82% 30.10 in 10.0 mi West 3.5 mph - 0.00 in Rain , Thunderstorm Light Rain
4:25 AM 60.8 °F 55.4 °F 82% 30.10 in 8.0 mi WNW 5.8 mph - 0.01 in Rain Light Rain
4:53 AM 61.0 °F 57.0 °F 87% 30.04 in 9.0 mi ESE 11.5 mph - 0.07 in Rain Light Rain
5:53 AM 61.0 °F 54.0 °F 78% 29.98 in 10.0 mi SSE 15.0 mph - 0.00 in   Clear
6:53 AM 61.0 °F 55.9 °F 83% 30.01 in 10.0 mi SSE 9.2 mph - N/A   Scattered Clouds
7:53 AM 63.0 °F 57.0 °F 81% 30.08 in 10.0 mi NNW 8.1 mph - N/A   Mostly Cloudy
8:53 AM 66.0 °F 55.9 °F 70% 30.10 in 10.0 mi NNE 9.2 mph - N/A   Clear
9:53 AM 69.1 °F 57.0 °F 65% 30.09 in 10.0 mi ENE 10.4 mph - N/A   Scattered Clouds
10:53 AM 69.1 °F 57.0 °F 65% 30.11 in 10.0 mi NNE 9.2 mph - N/A   Partly Cloudy
11:53 AM 72.0 °F 57.0 °F 59% 30.11 in 10.0 mi NE 9.2 mph - N/A   Clear
12:53 PM 73.0 °F 57.0 °F 57% 30.09 in 10.0 mi Variable 6.9 mph - N/A   Partly Cloudy
1:53 PM 77.0 °F 55.9 °F 48% 30.09 in 10.0 mi NNW 6.9 mph - N/A   Clear
2:53 PM 77.0 °F 55.0 °F 47% 30.08 in 10.0 mi Calm Calm - N/A   Clear
3:53 PM 79.0 °F 55.0 °F 44% 30.07 in 10.0 mi NNE 10.4 mph - N/A   Partly Cloudy
4:53 PM 78.1 °F 54.0 °F 43% 30.07 in 10.0 mi NNE 5.8 mph - N/A   Clear
5:53 PM 77.0 °F 55.0 °F 47% 30.09 in 10.0 mi Variable 4.6 mph - N/A   Scattered Clouds
6:53 PM 75.9 °F 54.0 °F 46% 30.08 in 10.0 mi East 4.6 mph - N/A   Partly Cloudy
7:53 PM 75.0 °F 54.0 °F 48% 30.09 in 10.0 mi NNE 9.2 mph - N/A   Scattered Clouds
8:53 PM 72.0 °F 55.0 °F 55% 30.13 in 10.0 mi North 5.8 mph - N/A   Clear
9:53 PM 71.1 °F 53.1 °F 53% 30.14 in 10.0 mi NNE 10.4 mph - N/A   Partly Cloudy
10:53 PM 69.1 °F 53.1 °F 57% 30.14 in 10.0 mi NNE 9.2 mph - N/A   Clear
11:53 PM 66.0 °F 53.1 °F 63% 30.15 in 10.0 mi NNE 6.9 mph - N/A   Partly Cloudy